Location: Aressy
(43.2833°N, 0.3167°W)
Time: 21:05:57
(UTC+00:00)

Cosmos 1689 Rocket - Pass Details

Date: 28 January 2021
Orbit: 353 x 367 km, 97.5° (Epoch: 03 March)

Event Time Altitude Azimuth Distance (km) Brightness Sun altitude
Exits shadow 19:10:04 30° 309° (NW) 671 3.7 -22.2°
Maximum altitude 19:10:30 32° 288° (WNW) 638 3.7 -22.3°
Drops below altitude 10° 19:13:04 10° 222° (SW) 1,322 5.3 -22.8°
Sets 19:15:04 0° 212° (SSW) 2,159 6.3 -23.1°
